Pecs, Hungary

1:40 PM CET on January 24, 2017 (GMT +0100)
Pecs

Weather History for LHPP - December, 2013

Change the Weather History Date:

Friday, December 20, 2013

  Actual Average Record
Temperature  
Mean Temperature 28 °F -  
Max Temperature 35 °F 36 °F - ()
Min Temperature 23 °F 26 °F - ()
Degree Days  
Heating Degree Days 38    
Moisture  
Dew Point 27 °F    
Average Humidity 96    
Maximum Humidity 100    
Minimum Humidity 91    
Precipitation  
Precipitation 0.00 in 0.05 in - ()
Sea Level Pressure  
Sea Level Pressure 30.36 in    
Wind  
Wind Speed 3 mph ()    
Max Wind Speed 9 mph    
Max Gust Speed -    
Visibility 0.8 miles    
Events Fog , Rain    
T = Trace of Precipitation, MM = Missing Value Source: Averaged Metar Reports

Daily Weather History Graph

Daily Weather History Graph

Search for Another Location

Airport or City:

Trip Planner

Search our weather history database for the weather conditions in past years. The results will help you decide how hot, cold, wet, or windy it might be!

Date:

Astronomy

Dec. 20, 2013 Rise Set
Actual Time 7:25 AM CET 4:03 PM CET
Civil Twilight 6:50 AM CET 4:38 PM CET
Nautical Twilight 6:12 AM CET 5:16 PM CET
Astronomical Twilight 5:36 AM CET 5:53 PM CET
Moon 7:16 PM CET (12/20) 9:01 AM CET (12/20)
Length of Visible Light 9h 47m
Length of Day
8h 38m
Waning Gibbous, 92% of the Moon is Illuminated
Dec 20
Waning Gibbous
Dec 25
Last Quarter
Jan 1
New
Jan 8
First Quarter
Jan 16
Full

Hourly Weather History & Observations

Time (CET) Temp. Windchill Dew Point Humidity Pressure Visibility Wind Dir Wind Speed Gust Speed Precip Events Conditions
12:00 AM 25 °F - 24 °F 95% 30.26 in 0 mi East 4.5 mph - - Fog Heavy Fog
12:45 AM 24.8 °F 20.5 °F 23.0 °F 93% 30.21 in 0.1 mi East 3.5 mph - N/A Fog Light Freezing Fog
1:00 AM 25 °F - 24 °F 92% 30.27 in 0 mi East 4.5 mph - - Fog Heavy Fog
1:45 AM 24.8 °F 20.5 °F 23.0 °F 93% 30.21 in 0.1 mi East 3.5 mph - N/A Fog Light Freezing Fog
2:00 AM 25 °F - 23 °F 91% 30.28 in 0 mi East 4.5 mph - - Fog Heavy Fog
2:45 AM 24.8 °F 20.5 °F 23.0 °F 93% 30.24 in 0.1 mi East 3.5 mph - N/A Fog Light Freezing Fog
3:00 AM 25 °F - 23 °F 91% 30.29 in 0 mi East 2.2 mph - - Fog Heavy Fog
3:45 AM 24.8 °F - 23.0 °F 93% 30.24 in 0.1 mi East 2.3 mph - N/A Fog Light Freezing Fog
4:00 AM 24 °F - 23 °F 95% 30.29 in 0 mi East 2.2 mph - - Fog Heavy Fog
4:45 AM 24.8 °F 20.5 °F 23.0 °F 93% 30.24 in 0.1 mi East 3.5 mph - N/A Fog Light Freezing Fog
5:00 AM 24 °F - 23 °F 92% 30.30 in 0 mi East 2.2 mph - - Fog Heavy Fog
5:15 AM 23.0 °F - 23.0 °F 100% 30.27 in 0.1 mi East 2.3 mph - N/A Fog Light Freezing Fog
5:45 AM 23.0 °F - 23.0 °F 100% 30.27 in 0.1 mi East 2.3 mph - N/A Fog Light Freezing Fog
6:00 AM 24 °F - 22 °F 91% 30.32 in 0 mi East 2.2 mph - - Fog Heavy Fog
6:00 AM - - - N/A% - 0.1 mi Variable 3.5 mph - N/A Fog Drizzle
6:15 AM 23.0 °F - 21.2 °F 93% 30.27 in 0.1 mi East 2.3 mph - N/A Fog Light Freezing Fog
6:45 AM 23.0 °F - 21.2 °F 93% 30.27 in 0.1 mi East 2.3 mph - N/A Fog Light Freezing Fog
7:00 AM 23 °F - 22 °F 94% 30.33 in 0 mi East 2.2 mph - - Fog Heavy Fog
7:15 AM 23.0 °F - 21.2 °F 93% 30.30 in 0.1 mi East 2.3 mph - N/A Fog Light Freezing Fog
7:45 AM 23.0 °F - 21.2 °F 93% 30.30 in 0.1 mi East 2.3 mph - N/A Fog Light Freezing Fog
8:00 AM 23 °F - 22 °F 93% 30.35 in 0 mi East 2.2 mph - - Fog Heavy Fog
8:15 AM 23.0 °F - 23.0 °F 100% 30.30 in 0.1 mi East 2.3 mph - N/A Fog Light Freezing Fog
8:45 AM 24.8 °F - 23.0 °F 93% 30.33 in 0.1 mi East 2.3 mph - N/A Fog Light Freezing Fog
9:00 AM 24 °F - 23 °F 93% 30.37 in 0 mi East 2.2 mph - - Fog Heavy Fog
9:00 AM - - - N/A% - 0.1 mi Variable 3.5 mph - N/A Fog Drizzle
9:15 AM 24.8 °F - 23.0 °F 93% 30.33 in 0.1 mi East 2.3 mph - N/A Fog Light Freezing Fog
9:45 AM 24.8 °F - 24.8 °F 100% 30.33 in 0.1 mi East 2.3 mph - N/A Fog Light Freezing Fog
10:00 AM 25 °F - 24 °F 95% 30.38 in 0 mi East 2.2 mph - - Fog Heavy Fog
10:15 AM 26.6 °F - 24.8 °F 93% 30.33 in 0.1 mi East 2.3 mph - N/A Fog Light Freezing Fog
10:45 AM 26.6 °F - 26.6 °F 100% 30.33 in 0.1 mi East 2.3 mph - N/A Fog Light Freezing Fog
11:00 AM 27 °F - 26 °F 97% 30.38 in 0 mi East 2.2 mph - - Fog Heavy Fog
11:15 AM 28.4 °F - 26.6 °F 93% 30.33 in 0.1 mi East 2.3 mph - N/A Fog Light Freezing Fog
11:45 AM 28.4 °F - 28.4 °F 100% 30.33 in 0.1 mi East 2.3 mph - N/A Fog Light Freezing Fog
12:00 PM 29 °F - 28 °F 97% 30.38 in 0 mi East 2.2 mph - - Fog Heavy Fog
12:00 PM - - - N/A% - 0.1 mi Variable 3.5 mph - N/A Fog Drizzle
12:15 PM 30.2 °F - 28.4 °F 93% 30.33 in 0.1 mi ESE 2.3 mph - N/A Fog Light Freezing Fog
12:45 PM 32.0 °F - 30.2 °F 93% 30.33 in 0.1 mi ESE 2.3 mph - N/A Fog Light Freezing Fog
1:00 PM 31 °F - 30 °F 96% 30.38 in 0 mi ESE 2.2 mph - - Fog Partial Fog
1:15 PM 32.0 °F - 30.2 °F 93% 30.33 in 0.1 mi SE 2.3 mph - N/A Fog Light Freezing Fog
1:45 PM 30.2 °F - 30.2 °F 100% 30.33 in 0.1 mi East 2.3 mph - N/A Fog Light Freezing Fog
2:00 PM 31 °F - 30 °F 95% 30.38 in 0 mi East 2.2 mph - - Fog Heavy Fog
2:15 PM 30.2 °F - 30.2 °F 100% 30.36 in 0.1 mi East 1.2 mph - N/A Fog Light Freezing Fog
2:45 PM 32.0 °F - 30.2 °F 93% 30.36 in 0.1 mi ESE 2.3 mph - N/A Fog Light Freezing Fog
3:00 PM - - - N/A% - 0.1 mi Variable 3.5 mph - N/A Fog Light Freezing Fog
3:15 PM 30.2 °F - 30.2 °F 100% 30.36 in 0.0 mi ESE 2.3 mph - N/A Fog Light Freezing Fog
3:17 PM 30.2 °F - 30.2 °F 100% 30.39 in 0.0 mi ESE 2.3 mph - N/A Fog Light Freezing Fog
3:45 PM 30.2 °F - 30.2 °F 100% 30.36 in 0.0 mi East 2.3 mph - N/A Fog Light Freezing Fog
4:00 PM 31 °F - 30 °F 93% 30.40 in 0 mi East 2.2 mph - - Fog Heavy Fog
4:15 PM 30.2 °F - 30.2 °F 100% 30.36 in 0.0 mi ESE 2.3 mph - N/A Fog Light Freezing Fog
4:45 PM 30.2 °F - 28.4 °F 93% 30.36 in 0.1 mi East 2.3 mph - N/A Fog Light Freezing Fog
5:00 PM 30 °F - 29 °F 95% 30.42 in 0 mi East 2.2 mph - - Fog Heavy Fog
5:15 PM 30.2 °F - 28.4 °F 93% 30.39 in 0.1 mi ENE 2.3 mph - N/A Fog Light Freezing Fog
5:45 PM 30.2 °F - 28.4 °F 93% 30.39 in 0.1 mi ENE 2.3 mph - N/A Fog Light Freezing Fog
6:00 PM 30 °F - 29 °F 95% 30.43 in 0 mi ENE 2.2 mph - - Fog Heavy Fog
6:15 PM 30.2 °F - 30.2 °F 100% 30.39 in 0.5 mi ENE 2.3 mph - N/A Fog Light Freezing Fog
6:16 PM 30.2 °F - 30.2 °F 100% 30.45 in 0.5 mi ENE 2.3 mph - N/A Fog Light Freezing Fog
6:31 PM 30.2 °F - 30.2 °F 100% 30.45 in 0.9 mi ENE 2.3 mph - N/A   Scattered Clouds
6:45 PM 30.2 °F - 30.2 °F 100% 30.39 in 1.2 mi ENE 2.3 mph - N/A   Mist
7:00 PM 30 °F - 30 °F 98% 30.44 in 1 mi ENE 2.2 mph - - Fog Light Fog
7:06 PM - - - N/A% - 1.6 mi Variable 3.5 mph - N/A Fog Light Freezing Fog
7:15 PM 30.2 °F - 30.2 °F 100% 30.42 in 1.2 mi East 1.2 mph - N/A   Mist
7:45 PM 30.2 °F - 30.2 °F 100% 30.42 in 2.5 mi East 1.2 mph - N/A   Partly Cloudy
8:00 PM 30 °F - 30 °F 99% 30.46 in 2 mi East 2.2 mph - -   Mist
8:15 PM 32.0 °F - 30.2 °F 93% 30.42 in 2.5 mi East 2.3 mph - N/A   Scattered Clouds
8:37 PM 32.0 °F - 30.2 °F 93% 30.45 in - ENE 2.3 mph - N/A   Unknown
8:39 PM 32.0 °F - 30.2 °F 93% 30.48 in 2.5 mi ENE 2.3 mph - N/A   Drizzle
8:45 PM 32.0 °F - 30.2 °F 93% 30.45 in 2.5 mi ENE 2.3 mph - N/A   Drizzle
9:00 PM 31 °F - 31 °F 100% 30.48 in 2 mi ENE 2.2 mph - - Rain Heavy Freezing Drizzle
9:33 PM 32.0 °F - 32.0 °F 100% 30.51 in 5.0 mi Calm Calm - N/A   Mostly Cloudy
9:45 PM 32.0 °F - 32.0 °F 100% 30.48 in 6.2 mi Calm Calm - N/A   Mostly Cloudy
10:00 PM 32 °F - 31 °F 95% 30.51 in 6 mi Calm Calm - - Rain Light Freezing Drizzle
10:45 PM 32.0 °F - 32.0 °F 100% 30.48 in 6.2 mi WNW 2.3 mph - N/A   Mostly Cloudy
11:00 PM 32 °F - 31 °F 95% 30.53 in 6 mi WNW 2.2 mph - -   Partly Cloudy
11:45 PM 35.6 °F 28.6 °F 35.6 °F 100% 30.51 in 6.2 mi NNW 9.2 mph - N/A   Mostly Cloudy